Location: Castle
(40.7167°S, 175.9500°E)
Time: 11:31:51
(UTC+00:00)

ISS - Visible Passes

Search period start: 11 October 2024 00:00
Search period end: 21 October 2024 00:00
Orbit: 411 x 424 km, 51.6° (Epoch: 11 October)

Date Brightness Start Highest point End Pass type
(mag) Time Alt. Az. Time Alt. Az. Time Alt. Az.
11 Oct -2.7 07:30:38 10° NNW 07:33:37 28° NE 07:35:10 20° E visible
11 Oct -1.1 09:07:03 10° W 09:08:11 18° W 09:08:11 18° W visible
12 Oct -3.2 08:18:38 10° WNW 08:22:02 59° SSW 08:23:17 34° SSE visible
13 Oct -3.8 07:30:14 10° NW 07:33:40 82° NE 07:37:08 10° SE visible
13 Oct -1.2 09:08:03 10° WSW 09:10:46 21° SSW 09:10:48 21° SSW visible
14 Oct -1.7 08:19:03 10° W 08:22:04 28° SSW 08:24:52 11° SE visible
15 Oct -2.3 07:30:00 10° W 07:33:15 40° SSW 07:36:32 10° SE visible
15 Oct -0.9 09:08:36 10° SW 09:10:42 15° S 09:11:26 14° S visible
16 Oct -1.0 08:19:10 10° WSW 08:21:35 18° SSW 08:24:00 10° SSE visible
16 Oct -0.1 09:57:29 10° SSW 09:57:37 10° SSW 09:57:37 10° SSW visible
17 Oct -1.3 07:29:36 10° WSW 07:32:20 22° SSW 07:35:06 10° SSE visible
17 Oct -0.8 09:08:16 10° SSW 09:10:02 13° S 09:10:39 13° SSE visible
18 Oct -0.9 08:18:41 10° SW 08:20:32 14° S 08:22:24 10° SSE visible
18 Oct -0.3 09:55:55 10° SSW 09:56:17 12° SSW 09:56:17 12° SSW visible
19 Oct -1.0 07:28:47 10° SW 07:30:54 15° S 07:33:02 10° SSE visible
19 Oct -1.0 09:06:39 10° SSW 09:08:40 15° S 09:08:51 15° SSE visible
20 Oct -1.0 08:17:04 10° SSW 08:18:51 13° S 08:20:38 10° SE visible
20 Oct -0.4 09:53:28 10° SW 09:54:04 13° SSW 09:54:04 13° SSW visible
